Location: Unspecified
(43.4354°N, 0.0000°E)
Time: 08:42:24
(UTC+00:00)

S-56A Canister/Altair - Pass Details

Date: 26 June 2019
Orbit: 632 x 2500 km, 38.9° (Epoch: 17 July)

Event Time Altitude Azimuth Distance (km) Brightness Sun altitude
Rises 13:18:28 0° 219° (SW) 5,947 12.4 64.6°
Reaches altitude 10° 13:23:04 10° 212° (SSW) 4,743 12.1 64.0°
Maximum altitude 13:34:04 36° 153° (SSE) 2,542 10.8 62.5°
Drops below altitude 10° 13:42:00 10° 91° (E) 3,419 10.7 61.4°
Sets 13:44:44 0° 83° (E) 4,151 11.0 61.0°
